When you browse on this site, cookies collect data to enhance your experience and personalize the content and advertising you see.
Visit our Privacy Policy to learn more. By continuing to use the site, you agree to this use of cookies and data.
  • In Hungary
  • List of Countries
  • For 7 days
  • Water Temperature
  • Weather Map
  • News
  • Weather Widgets
  • user-avatar
    Login

    Hourly Weather La Massana

    Today, 27 February, Thursday

    Time Temperature Precipitation Wind Pressure Humidity
    00:00 -4°C° 0 mm 1 mps 606 mmHg 77%
    01:00 -4°C° 0 mm 1 mps 606 mmHg 75%
    02:00 -4°C° 0 mm 1 mps 606 mmHg 72%
    03:00 -4°C° 0 mm 1 mps 605 mmHg 70%
    04:00 -4°C° 0 mm 1 mps 605 mmHg 68%
    05:00 -3°C° 0 mm 1 mps 605 mmHg 66%
    06:00 -3°C° 0 mm 1 mps 605 mmHg 64%
    07:00 -1°C° 0 mm 1 mps 606 mmHg 62%
    08:00 +1°C° 0 mm 1 mps 606 mmHg 60%
    09:00 +2°C° 0 mm 1 mps 607 mmHg 58%
    10:00 +3°C° 0 mm 2 mps 608 mmHg 53%
    11:00 +4°C° 0 mm 2 mps 608 mmHg 48%
    12:00 +6°C° 0 mm 2 mps 609 mmHg 42%
    13:00 +5°C° 0.2 mm 2 mps 608 mmHg 52%
    14:00 +5°C° 0.2 mm 2 mps 608 mmHg 61%
    15:00 +4°C° 0.2 mm 2 mps 607 mmHg 70%
    16:00 +3°C° 0.2 mm 2 mps 607 mmHg 77%
    17:00 +2°C° 0.2 mm 2 mps 607 mmHg 85%
    18:00 +1°C° 0.2 mm 2 mps 607 mmHg 93%
    19:00 +1°C° 0.3 mm 2 mps 607 mmHg 94%
    20:00 +1°C° 0.3 mm 2 mps 607 mmHg 95%
    21:00 +1°C° 0.3 mm 2 mps 607 mmHg 96%
    22:00 +1°C° 0.2 mm 2 mps 608 mmHg 96%
    23:00 +1°C° 0.2 mm 2 mps 608 mmHg 96%

    Tomorrow, 28 February, Friday

    Time Temperature Precipitation Wind Pressure Humidity
    00:00 +1°C° 0.2 mm 2 mps 608 mmHg 96%
    01:00 +1°C° 0.2 mm 2 mps 608 mmHg 96%
    02:00 +2°C° 0.2 mm 1 mps 609 mmHg 96%
    03:00 +2°C° 0.2 mm 1 mps 609 mmHg 96%
    04:00 +1°C° 0.1 mm 1 mps 609 mmHg 95%
    05:00 +1°C° 0.1 mm 1 mps 609 mmHg 95%
    06:00 +1°C° 0.1 mm 1 mps 609 mmHg 95%
    07:00 +3°C° 0 mm 1 mps 610 mmHg 89%
    08:00 +4°C° 0 mm 1 mps 610 mmHg 83%
    09:00 +4°C° 0 mm 0 mps 611 mmHg 77%
    10:00 +7°C° 0 mm 1 mps 612 mmHg 72%
    11:00 +8°C° 0 mm 1 mps 612 mmHg 68%
    12:00 +9°C° 0 mm 1 mps 613 mmHg 63%
    13:00 +9°C° 0 mm 1 mps 612 mmHg 64%
    14:00 +9°C° 0 mm 1 mps 612 mmHg 65%
    15:00 +8°C° 0 mm 2 mps 611 mmHg 67%
    16:00 +6°C° 0 mm 2 mps 610 mmHg 75%
    17:00 +5°C° 0 mm 2 mps 609 mmHg 83%
    18:00 +3°C° 0 mm 2 mps 608 mmHg 91%
    19:00 +3°C° 0 mm 2 mps 608 mmHg 91%
    20:00 +2°C° 0 mm 2 mps 608 mmHg 92%
    21:00 +2°C° 0 mm 2 mps 607 mmHg 92%
    22:00 +2°C° 0 mm 2 mps 607 mmHg 91%
    23:00 +1°C° 0 mm 2 mps 606 mmHg 89%

    Day after tomorrow, 29 February, Saturday

    Time Temperature Precipitation Wind Pressure Humidity
    00:00 +1°C° 0 mm 2 mps 606 mmHg 88%
    01:00 0°C° 0 mm 3 mps 605 mmHg 85%
    02:00 0°C° 0 mm 3 mps 604 mmHg 83%
    03:00 0°C° 0 mm 3 mps 603 mmHg 81%
    04:00 0°C° 0 mm 3 mps 603 mmHg 79%
    05:00 -1°C° 0 mm 3 mps 602 mmHg 78%
    06:00 -1°C° 0 mm 3 mps 602 mmHg 76%
    07:00 0°C° 0 mm 3 mps 603 mmHg 72%
    08:00 +2°C° 0 mm 3 mps 603 mmHg 69%
    09:00 +3°C° 0 mm 3 mps 604 mmHg 65%
    10:00 +4°C° 0 mm 3 mps 604 mmHg 62%
    11:00 +5°C° 0 mm 3 mps 604 mmHg 59%
    12:00 +8°C° 0 mm 3 mps 605 mmHg 56%
    13:00 +7°C° 0 mm 3 mps 604 mmHg 61%
    14:00 +6°C° 0 mm 2 mps 604 mmHg 66%
    15:00 +5°C° 0 mm 2 mps 603 mmHg 71%
    16:00 +4°C° 0.1 mm 2 mps 603 mmHg 79%
    17:00 +2°C° 0.1 mm 2 mps 603 mmHg 86%
    18:00 +2°C° 0.1 mm 1 mps 602 mmHg 94%
    19:00 +2°C° 0.2 mm 1 mps 603 mmHg 94%
    20:00 +2°C° 0.2 mm 1 mps 603 mmHg 95%
    21:00 +1°C° 0.2 mm 1 mps 603 mmHg 95%
    22:00 +1°C° 0.4 mm 1 mps 603 mmHg 95%
    23:00 0°C° 0.4 mm 1 mps 603 mmHg 96%

    1 March, Sunday

    Time Temperature Precipitation Wind Pressure Humidity
    00:00 0°C° 0.4 mm 1 mps 603 mmHg 96%
    01:00 -1°C° 0.4 mm 1 mps 603 mmHg 96%
    02:00 -1°C° 0.4 mm 1 mps 603 mmHg 96%
    03:00 -1°C° 0.4 mm 1 mps 603 mmHg 96%
    04:00 -2°C° 0.1 mm 0 mps 603 mmHg 96%
    05:00 -2°C° 0.1 mm 0 mps 603 mmHg 96%
    06:00 -2°C° 0.1 mm 0 mps 603 mmHg 96%
    07:00 -1°C° 0 mm 1 mps 603 mmHg 93%
    08:00 0°C° 0 mm 1 mps 604 mmHg 90%
    09:00 -2°C° 0 mm 2 mps 604 mmHg 87%
    10:00 -1°C° 0 mm 2 mps 604 mmHg 81%
    11:00 0°C° 0 mm 3 mps 604 mmHg 75%
    12:00 +1°C° 0 mm 3 mps 604 mmHg 69%
    13:00 +1°C° 0.2 mm 3 mps 603 mmHg 74%
    14:00 0°C° 0.2 mm 3 mps 602 mmHg 79%
    15:00 0°C° 0.2 mm 3 mps 601 mmHg 83%
    16:00 -1°C° 0.9 mm 2 mps 601 mmHg 87%
    17:00 -2°C° 0.9 mm 2 mps 601 mmHg 91%
    18:00 0°C° 0.9 mm 1 mps 601 mmHg 95%
    19:00 -1°C° 0 mm 1 mps 601 mmHg 93%
    20:00 -2°C° 0 mm 1 mps 602 mmHg 92%
    21:00 -2°C° 0 mm 1 mps 602 mmHg 90%
    22:00 -2°C° 0 mm 1 mps 602 mmHg 84%
    23:00 -2°C° 0 mm 1 mps 602 mmHg 78%

    2 March, Monday

    Time Temperature Precipitation Wind Pressure Humidity
    00:00 -2°C° 0 mm 1 mps 601 mmHg 72%
    01:00 -4°C° 0 mm 2 mps 601 mmHg 75%
    02:00 -3°C° 0 mm 2 mps 601 mmHg 78%
    03:00 -3°C° 0 mm 2 mps 600 mmHg 81%
    04:00 -3°C° 1.2 mm 2 mps 600 mmHg 86%
    05:00 -3°C° 1.2 mm 2 mps 599 mmHg 90%
    06:00 -3°C° 1.2 mm 2 mps 598 mmHg 95%
    07:00 -2°C° 1.1 mm 2 mps 598 mmHg 94%
    08:00 0°C° 1.1 mm 1 mps 598 mmHg 94%
    09:00 +1°C° 1.1 mm 1 mps 598 mmHg 94%
    10:00 +2°C° 0.1 mm 1 mps 599 mmHg 91%
    11:00 +2°C° 0.1 mm 2 mps 599 mmHg 89%
    12:00 +4°C° 0.1 mm 2 mps 599 mmHg 86%
    13:00 +2°C° 1.5 mm 2 mps 599 mmHg 88%
    14:00 +1°C° 1.5 mm 2 mps 598 mmHg 89%
    15:00 -1°C° 1.5 mm 2 mps 598 mmHg 91%
    16:00 -2°C° 0.8 mm 2 mps 598 mmHg 91%
    17:00 -4°C° 0.8 mm 3 mps 598 mmHg 92%
    18:00 -6°C° 0.8 mm 3 mps 598 mmHg 92%
    19:00 -6°C° 0.4 mm 3 mps 598 mmHg 92%
    20:00 -8°C° 0.4 mm 4 mps 599 mmHg 92%
    21:00 -9°C° 0.4 mm 4 mps 600 mmHg 92%
    22:00 -9°C° 0.6 mm 4 mps 600 mmHg 92%
    23:00 -9°C° 0.6 mm 4 mps 601 mmHg 92%

    3 March, Tuesday

    Time Temperature Precipitation Wind Pressure Humidity
    00:00 -9°C° 0.6 mm 4 mps 601 mmHg 92%
    01:00 -9°C° 0.7 mm 4 mps 601 mmHg 92%
    02:00 -9°C° 0.7 mm 4 mps 602 mmHg 92%
    03:00 -9°C° 0.7 mm 4 mps 602 mmHg 92%
    04:00 -10°C° 0.3 mm 4 mps 602 mmHg 92%
    05:00 -9°C° 0.3 mm 3 mps 602 mmHg 92%
    06:00 -9°C° 0.3 mm 3 mps 603 mmHg 91%
    07:00 -8°C° 0 mm 3 mps 603 mmHg 87%
    08:00 -7°C° 0 mm 3 mps 604 mmHg 82%
    09:00 -5°C° 0 mm 2 mps 605 mmHg 77%
    10:00 -3°C° 0 mm 2 mps 605 mmHg 73%
    11:00 -2°C° 0 mm 2 mps 606 mmHg 70%
    12:00 +2°C° 0 mm 1 mps 607 mmHg 66%
    13:00 +2°C° 0 mm 1 mps 606 mmHg 67%
    14:00 +3°C° 0 mm 1 mps 606 mmHg 68%
    15:00 +3°C° 0 mm 1 mps 606 mmHg 69%
    16:00 +2°C° 0 mm 1 mps 606 mmHg 75%
    17:00 +2°C° 0 mm 1 mps 605 mmHg 80%
    18:00 +1°C° 0 mm 1 mps 605 mmHg 86%
    19:00 +1°C° 0.1 mm 1 mps 605 mmHg 89%
    20:00 +1°C° 0.1 mm 1 mps 605 mmHg 92%
    21:00 +2°C° 0.1 mm 1 mps 606 mmHg 95%
    22:00 +1°C° 0 mm 2 mps 605 mmHg 94%
    23:00 +1°C° 0 mm 2 mps 605 mmHg 93%
    Show more